Change the Weather History Date:

Monday, September 30, 2013

  Actual Average Record
Temperature  
Mean Temperature 55 °F -  
Max Temperature 69 °F 67 °F 84 °F (1986)
Min Temperature 44 °F 43 °F 29 °F (1992)
Degree Days  
Heating Degree Days 10    
Growing Degree Days 5 (Base 50)    
Moisture  
Dew Point 48 °F    
Average Humidity 90    
Maximum Humidity 100    
Minimum Humidity 47    
Precipitation  
Precipitation 0.00 in - - ()
Sea Level Pressure  
Sea Level Pressure 30.07 in    
Wind  
Wind Speed 1 mph (NE)    
Max Wind Speed 7 mph    
Max Gust Speed -    
Visibility 5 miles    
Events Fog    
Averages and records for this station are not official NWS values.
T = Trace of Precipitation, MM = Missing Value Source: NWS Daily Summary

Daily Weather History Graph

Daily Weather History Graph

Search for Another Location

Airport or City:

Trip Planner

Search our weather history database for the weather conditions in past years. The results will help you decide how hot, cold, wet, or windy it might be!

Date:

Astronomy

Sep. 30, 2013 Rise Set
Actual Time 6:41 AM EDT 6:27 PM EDT
Civil Twilight 6:13 AM EDT 6:55 PM EDT
Nautical Twilight 5:40 AM EDT 7:28 PM EDT
Astronomical Twilight 5:07 AM EDT 8:01 PM EDT
Moon 2:10 AM EDT (9/30) 4:01 PM EDT (9/30)
Length of Visible Light 12h 42m
Length of Day
11h 46m
Waning Crescent, 19% of the Moon is Illuminated
Sep 30
Waning Crescent
Oct 4
New
Oct 11
First Quarter
Oct 18
Full
Oct 26
Last Quarter

Hourly Weather History & Observations

Time (EDT) Temp. Windchill Dew Point Humidity Pressure Visibility Wind Dir Wind Speed Gust Speed Precip Events Conditions
12:56 AM 46.9 °F - 46.0 °F 97% 30.16 in 10.0 mi Calm Calm - N/A   Overcast
1:30 AM 48.2 °F - 46.4 °F 93% 30.12 in 10.0 mi Calm Calm - N/A   Overcast
1:56 AM 48.0 °F - 48.0 °F 100% 30.15 in 7.0 mi Calm Calm - N/A   Overcast
2:56 AM 50.0 °F - 50.0 °F 100% 30.14 in 3.0 mi Calm Calm - N/A   Overcast
3:32 AM 48.2 °F - 48.2 °F 100% 30.09 in 1.8 mi Calm Calm - N/A   Overcast
3:46 AM 48.2 °F - 48.2 °F 100% 30.10 in 0.5 mi Calm Calm - N/A Fog Fog
3:56 AM 48.9 °F - 48.9 °F 100% 30.14 in 0.2 mi Calm Calm - N/A Fog Fog
4:26 AM 48.2 °F - 48.2 °F 100% 30.10 in 0.2 mi Calm Calm - N/A Fog Fog
4:49 AM 48.2 °F - 48.2 °F 100% 30.09 in 0.2 mi Calm Calm - N/A Fog Fog
4:56 AM 48.9 °F - 48.9 °F 100% 30.13 in 0.2 mi North 3.5 mph - N/A Fog Fog
5:17 AM 48.2 °F - 48.2 °F 100% 30.10 in 0.2 mi NE 3.5 mph - N/A Fog Fog
5:29 AM 48.2 °F - 48.2 °F 100% 30.10 in 0.2 mi Calm Calm - N/A Fog Fog
5:56 AM 48.0 °F - 48.0 °F 100% 30.14 in 0.2 mi Calm Calm - N/A Fog Fog
6:25 AM 48.2 °F - 48.2 °F 100% 30.10 in 0.2 mi NNW 3.5 mph - N/A Fog Fog
6:36 AM 48.2 °F - 48.2 °F 100% 30.09 in 0.2 mi NW 3.5 mph - N/A Fog Fog
6:56 AM 46.9 °F - 46.9 °F 100% 30.14 in 0.2 mi Calm Calm - N/A Fog Fog
7:56 AM 46.9 °F - 46.9 °F 100% 30.14 in 0.2 mi Calm Calm - N/A Fog Fog
8:41 AM 48.2 °F - 48.2 °F 100% 30.10 in 0.2 mi Calm Calm - N/A Fog Fog
8:56 AM 48.0 °F - 48.0 °F 100% 30.14 in 0.2 mi Calm Calm - N/A Fog Fog
9:46 AM 48.2 °F - 48.2 °F 100% 30.08 in 0.2 mi Calm Calm - N/A Fog Fog
9:56 AM 50.0 °F - 50.0 °F 100% 30.13 in 0.8 mi Calm Calm - N/A   Overcast
10:03 AM 50.0 °F - 50.0 °F 100% 30.09 in 1.5 mi Calm Calm - N/A   Overcast
10:10 AM 50.0 °F - 50.0 °F 100% 30.09 in 3.0 mi Calm Calm - N/A   Overcast
10:56 AM 54.0 °F - 50.0 °F 86% 30.11 in 10.0 mi Calm Calm - N/A   Scattered Clouds
11:56 AM 61.0 °F - 50.0 °F 67% 30.09 in 10.0 mi East 3.5 mph - N/A   Clear
12:56 PM 66.0 °F - 48.0 °F 52% 30.07 in 10.0 mi NW 3.5 mph - N/A   Clear
1:56 PM 66.9 °F - 46.9 °F 49% 30.05 in 10.0 mi East 3.5 mph - N/A   Partly Cloudy
2:56 PM 66.9 °F - 46.9 °F 49% 30.04 in 10.0 mi Calm Calm - N/A   Clear
3:56 PM 66.9 °F - 46.9 °F 49% 30.02 in 10.0 mi Variable 3.5 mph - N/A   Clear
4:56 PM 66.9 °F - 46.0 °F 47% 30.01 in 10.0 mi Calm Calm - N/A   Clear
5:56 PM 63.0 °F - 50.0 °F 63% 30.01 in 10.0 mi ESE 6.9 mph - N/A   Clear
6:56 PM 57.9 °F - 50.0 °F 75% 30.02 in 10.0 mi ESE 3.5 mph - N/A   Clear
7:56 PM 52.0 °F - 48.9 °F 89% 30.02 in 10.0 mi Calm Calm - N/A   Clear
8:56 PM 50.0 °F - 48.0 °F 93% 30.02 in 10.0 mi Calm Calm - N/A   Clear
9:56 PM 48.0 °F - 46.0 °F 93% 30.02 in 10.0 mi Calm Calm - N/A   Clear
10:56 PM 46.9 °F - 46.0 °F 97% 30.01 in 10.0 mi Calm Calm - N/A   Clear
11:24 PM 46.4 °F - 44.6 °F 93% 29.96 in 4.0 mi Calm Calm - N/A   Partly Cloudy
11:27 PM 46.4 °F - 44.6 °F 93% 29.96 in 1.8 mi Calm Calm - N/A   Partly Cloudy
11:38 PM 44.6 °F - 44.6 °F 100% 29.96 in 3.0 mi Calm Calm - N/A   Clear
11:41 PM 44.6 °F - 44.6 °F 100% 29.97 in 1.5 mi Calm Calm - N/A   Partly Cloudy
11:51 PM 46.4 °F - 44.6 °F 93% 29.96 in 4.0 mi Calm Calm - N/A   Clear
11:56 PM 46.0 °F 43.9 °F 45.0 °F 96% 30.00 in 10.0 mi East 4.6 mph - N/A   Clear